Location: Unspecified
(0.0000°N, 0.0000°E)
Time: 07:20:52
(UTC+00:00)

SRMSAT - Pass Details

Date: 31 March 2019
Orbit: 849 x 866 km, 20.0° (Epoch: 19 April)

Event Time Altitude Azimuth Distance (km) Brightness Sun altitude
Exits shadow 05:04:24 - 321° (NW) 3,144 ? -15.0°
Reaches altitude 10° 05:07:48 10° 346° (NNW) 2,462 ? -14.1°
Maximum altitude 05:10:05 12° 9° (N) 2,306 ? -13.5°
Drops below altitude 10° 05:12:24 10° 32° (NNE) 2,467 ? -13.0°
Sets 05:16:45 0° 62° (ENE) 3,409 ? -11.9°
